GJ7DNI-13 Weather Reports


time (UTC)temp
C
wind
direction
speed
KPH
gust
KPH
rain 1hr
cm
rain 24hr
cm
rain mn
cm
humidity
%
barometer
mb
20260505041457 12 25 6.4 19.3 0.03 0.03 0.03 87 1010.1
20260505040957 12 27 4.8 12.9 0.03 0.03 0.03 86 1010.2
20260505040457 12 37 4.8 12.9 0.03 0.03 0.03 87 1010.2
20260505035957 12 29 6.4 11.3 0.03 0.03 0.03 86 1010.2
20260505035457 12 27 8.0 20.9 0.03 0.03 0.03 86 1010.3
20260505034957 12 60 6.4 16.1 0.03 0.03 0.03 86 1010.3
20260505034457 12 71 6.4 14.5 0.03 0.03 0.03 86 1010.3
20260505033957 12 48 6.4 19.3 0.03 0.03 0.03 86 1010.3
20260505033457 12 14 6.4 17.7 0.03 0.03 0.03 86 1010.3
20260505032957 12 30 6.4 14.5 0.03 0.03 0.03 86 1010.2
20260505032457 12 50 8.0 14.5 0.03 0.03 0.03 86 1010.2
20260505031957 12 14 6.4 14.5 0.03 0.03 0.03 86 1010.2
20260505031457 12 14 6.4 12.9 0.00 0.00 0.00 86 1010.2
20260505030957 12 21 6.4 14.5 0.00 0.00 0.00 86 1010.3
20260505030457 12 333 4.8 9.7 0.00 0.00 0.00 86 1010.3
20260505025957 12 29 4.8 16.1 0.00 0.00 0.00 86 1010.4
20260505025457 12 20 3.2 8.0 0.00 0.00 0.00 86 1010.4
20260505024957 12 339 4.8 11.3 0.00 0.00 0.00 86 1010.4
20260505024457 12 18 4.8 11.3 0.00 0.00 0.00 86 1010.5
20260505023957 12 21 6.4 11.3 0.00 0.00 0.00 85 1010.5
20260505023457 12 4 8.0 14.5 0.00 0.00 0.00 85 1010.5
20260505022957 12 38 8.0 14.5 0.00 0.00 0.00 85 1010.7
20260505022457 12 43 6.4 12.9 0.00 0.00 0.00 85 1010.8
20260505021957 12 15 6.4 17.7 0.00 0.00 0.00 85 1010.8
20260505021457 12 19 6.4 11.3 0.00 0.00 0.00 85 1010.9
20260505020957 12 12 6.4 9.7 0.00 0.00 0.00 84 1010.9
20260505020457 12 18 4.8 12.9 0.00 0.00 0.00 84 1010.9
20260505015957 12 44 4.8 11.3 0.00 0.00 0.00 84 1010.9
20260505015457 12 20 4.8 12.9 0.00 0.00 0.00 84 1010.9
20260505014957 12 29 6.4 16.1 0.00 0.00 0.00 84 1011.0
20260505014457 12 26 6.4 12.9 0.00 0.00 0.00 84 1011.0
20260505013957 12 14 6.4 11.3 0.00 0.00 0.00 84 1011.0
20260505013457 12 4 6.4 16.1 0.00 0.00 0.00 84 1011.0
20260505012957 12 359 6.4 11.3 0.00 0.00 0.00 84 1011.0
20260505012457 12 27 6.4 8.0 0.00 0.00 0.00 83 1011.1
20260505011957 12 359 4.8 14.5 0.00 0.00 0.00 83 1011.1
20260505011457 12 31 4.8 8.0 0.00 0.00 0.00 83 1011.2
20260505010957 12 35 3.2 9.7 0.00 0.00 0.00 83 1011.2
20260505010457 12 85 3.2 6.4 0.00 0.00 0.00 83 1011.2
20260505005957 12 19 3.2 6.4 0.00 0.00 0.00 83 1011.3
20260505005457 12 32 4.8 9.7 0.00 0.00 0.00 83 1011.2
20260505004957 12 29 4.8 6.4 0.00 0.00 0.00 83 1011.3
20260505004457 12 41 4.8 11.3 0.00 0.00 0.00 83 1011.4
20260505003958 12 54 3.2 8.0 0.00 0.00 0.00 83 1011.4
20260505003457 12 52 3.2 9.7 0.00 0.00 0.00 83 1011.4
20260505002957 12 21 3.2 6.4 0.00 0.00 0.00 83 1011.4
20260505002457 12 15 3.2 6.4 0.00 0.00 0.00 83 1011.4
20260505001957 12 26 3.2 4.8 0.00 0.00 0.00 83 1011.5
20260505001457 12 15 4.8 8.0 0.00 0.00 0.00 83 1011.6
20260505000957 12 336 6.4 8.0 0.00 0.00 0.00 83 1011.6
20260505000457 12 21 6.4 11.3 0.00 0.00 0.00 83 1011.7
20260504235957 12 329 4.8 9.7 0.00 0.00 0.00 83 1011.7
20260504235457 12 11 4.8 11.3 0.00 0.00 0.00 83 1011.7
20260504234957 12 19 4.8 9.7 0.00 0.00 0.00 83 1011.7
20260504234457 12 337 1.6 8.0 0.00 0.00 0.00 83 1011.7
20260504233957 12 15 1.6 4.8 0.00 0.00 0.00 83 1011.7
20260504233457 12 50 3.2 6.4 0.00 0.00 0.00 83 1011.8
20260504232957 12 20 4.8 8.0 0.00 0.00 0.00 83 1011.7
20260504232457 12 323 4.8 11.3 0.00 0.00 0.00 83 1011.8
20260504231957 12 45 4.8 11.3 0.00 0.00 0.00 83 1011.8
20260504231457 12 337 4.8 9.7 0.00 0.00 0.00 83 1011.8
20260504230958 12 359 6.4 12.9 0.00 0.00 0.00 83 1011.8
20260504230457 12 20 4.8 8.0 0.00 0.00 0.00 83 1011.8
20260504225957 12 22 4.8 11.3 0.00 0.00 0.00 83 1011.9
20260504225458 12 11 4.8 8.0 0.00 0.00 0.00 83 1011.9
20260504224958 12 61 6.4 11.3 0.00 0.00 0.00 83 1011.9
20260504224458 12 340 6.4 11.3 0.00 0.00 0.00 83 1011.8
20260504223958 12 42 4.8 14.5 0.00 0.00 0.00 83 1011.9
20260504223458 12 39 4.8 8.0 0.00 0.00 0.00 83 1012.0
20260504222958 12 359 4.8 6.4 0.00 0.00 0.00 83 1012.0
20260504222458 12 8 4.8 14.5 0.00 0.00 0.00 83 1012.0
20260504221958 12 349 3.2 9.7 0.00 0.00 0.00 83 1012.1
20260504221458 12 8 3.2 11.3 0.00 0.00 0.00 83 1012.0
20260504220958 13 354 4.8 8.0 0.00 0.00 0.00 83 1012.0
20260504220458 13 4 4.8 12.9 0.00 0.00 0.00 82 1011.9
20260504215958 13 347 4.8 9.7 0.00 0.00 0.00 82 1011.9
20260504215458 13 4 4.8 9.7 0.00 0.00 0.00 82 1011.9
20260504214958 13 10 3.2 8.0 0.00 0.00 0.00 82 1012.1
20260504214458 13 31 3.2 4.8 0.00 0.00 0.00 82 1012.1
20260504213958 13 25 3.2 6.4 0.00 0.00 0.00 81 1012.1
20260504213458 13 23 3.2 6.4 0.00 0.00 0.00 81 1012.1
20260504212958 13 22 3.2 8.0 0.00 0.00 0.00 81 1012.0
20260504212458 13 23 3.2 6.4 0.00 0.00 0.00 81 1011.9
20260504211958 13 33 1.6 6.4 0.00 0.00 0.00 81 1011.9
20260504211458 13 43 1.6 6.4 0.00 0.00 0.00 80 1012.0
20260504210958 13 65 1.6 4.8 0.00 0.00 0.00 80 1012.0
20260504210458 13 61 1.6 4.8 0.00 0.00 0.00 80 1012.1
20260504205958 13 61 1.6 4.8 0.00 0.00 0.00 80 1012.0
20260504205458 13 63 1.6 4.8 0.00 0.00 0.00 80 1012.0
20260504204958 13 48 3.2 4.8 0.00 0.00 0.00 80 1012.0
20260504204458 13 42 3.2 6.4 0.00 0.00 0.00 80 1012.0
20260504203958 13 26 1.6 4.8 0.00 0.00 0.00 80 1012.0
20260504203458 13 34 3.2 4.8 0.00 0.00 0.00 80 1012.0
20260504202958 13 17 3.2 6.4 0.00 0.00 0.00 80 1012.0
20260504202609 18 20 6.4 12.9 0.00 0.10 0.00 62 1012.1
20260504202458 13 33 3.2 6.4 0.00 0.00 0.00 80 1012.0
20260504201958 13 50 3.2 6.4 0.00 0.00 0.00 80 1012.0
20260504201458 13 20 3.2 6.4 0.00 0.00 0.00 80 1012.0
20260504200958 13 49 3.2 4.8 0.00 0.00 0.00 80 1012.0
20260504200458 13 21 3.2 8.0 0.00 0.00 0.00 80 1011.9
20260504195958 13 16 3.2 9.7 0.00 0.00 0.00 80 1011.8
20260504195458 13 29 3.2 6.4 0.00 0.00 0.00 80 1011.8
20260504194958 13 28 4.8 6.4 0.00 0.00 0.00 80 1011.8
20260504194458 13 19 3.2 6.4 0.00 0.00 0.00 79 1011.8
20260504193958 13 11 4.8 6.4 0.00 0.00 0.00 79 1011.8
20260504193458 13 25 4.8 11.3 0.00 0.00 0.00 79 1011.7
20260504192958 13 27 3.2 8.0 0.00 0.00 0.00 79 1011.6
20260504192458 13 20 3.2 8.0 0.00 0.00 0.00 78 1011.6
20260504191958 13 53 4.8 8.0 0.00 0.00 0.00 78 1011.6
20260504191458 13 17 4.8 8.0 0.00 0.00 0.00 78 1011.6
20260504190958 14 10 4.8 9.7 0.00 0.00 0.00 77 1011.6
20260504190458 13 27 4.8 11.3 0.00 0.00 0.00 77 1011.7
20260504185958 13 35 6.4 9.7 0.00 0.00 0.00 76 1011.7
20260504185458 13 21 8.0 12.9 0.00 0.00 0.00 76 1011.7
20260504184958 14 10 6.4 12.9 0.00 0.00 0.00 75 1011.6
20260504184458 14 338 6.4 14.5 0.00 0.00 0.00 74 1011.6
20260504183958 14 14 6.4 14.5 0.00 0.00 0.00 74 1011.6
20260504183458 14 349 6.4 14.5 0.00 0.00 0.00 74 1011.7
20260504182958 14 359 6.4 9.7 0.00 0.00 0.00 74 1011.7
20260504182458 14 10 6.4 14.5 0.00 0.00 0.00 73 1011.7
20260504181958 14 12 6.4 11.3 0.00 0.00 0.00 73 1011.6
20260504181458 14 328 6.4 9.7 0.00 0.00 0.00 73 1011.6
20260504180958 14 319 6.4 8.0 0.00 0.00 0.00 73 1011.6
20260504180458 14 359 6.4 14.5 0.00 0.00 0.00 73 1011.7
20260504175958 14 347 6.4 11.3 0.00 0.00 0.00 72 1011.6
20260504175458 14 9 8.0 12.9 0.00 0.00 0.00 72 1011.6
20260504174958 14 354 8.0 16.1 0.00 0.00 0.00 72 1011.6
20260504174458 14 339 8.0 16.1 0.00 0.00 0.00 72 1011.7
20260504173958 14 4 8.0 14.5 0.00 0.00 0.00 72 1011.7
20260504173458 14 4 8.0 14.5 0.00 0.00 0.00 72 1011.8
20260504172958 14 27 8.0 14.5 0.00 0.00 0.00 72 1011.7
20260504172458 14 323 8.0 16.1 0.00 0.00 0.00 72 1011.7
20260504171958 14 328 9.7 16.1 0.00 0.00 0.00 72 1011.7
20260504171458 14 354 9.7 16.1 0.00 0.00 0.00 72 1011.8
20260504170958 14 326 9.7 16.1 0.00 0.00 0.00 71 1011.8
20260504170458 14 347 9.7 19.3 0.00 0.00 0.00 71 1011.8
20260504150958 15 359 8.0 17.7 0.00 0.00 0.00 70 1011.7
20260504150458 15 350 9.7 17.7 0.00 0.00 0.00 71 1011.7
20260504140958 15 354 9.7 17.7 0.00 0.00 0.00 72 1012.0
20260504140458 16 314 9.7 16.1 0.00 0.00 0.00 70 1011.9
20260504130458 15 266 4.8 9.7 0.00 0.10 0.00 73 1012.0
20260504110459 17 280 3.2 8.0 0.00 0.10 0.00 64 1012.3
20260504100459 16 354 6.4 14.5 0.00 0.10 0.00 67 1012.2
20260504081959 13 310 6.4 14.5 0.00 0.10 0.00 80 1012.2
20260504081459 13 330 8.0 14.5 0.00 0.10 0.00 80 1012.2
20260504080959 13 28 8.0 14.5 0.00 0.10 0.00 80 1012.2
20260504080459 13 35 6.4 16.1 0.00 0.10 0.00 80 1012.2
20260504050459 11 359 0.0 3.2 0.00 0.10 0.00 87 1010.8
20260504045959 11 359 0.0 1.6 0.00 0.10 0.00 87 1010.7
20260504045459 11 10 1.6 3.2 0.00 0.10 0.00 87 1010.6
20260504044959 11 359 1.6 3.2 0.00 0.10 0.00 87 1010.5
20260504044459 11 359 1.6 3.2 0.00 0.10 0.00 87 1010.5
20260504043959 11 4 1.6 4.8 0.00 0.10 0.00 87 1010.6
20260504043459 11 320 1.6 4.8 0.00 0.10 0.00 87 1010.6
20260504042959 11 359 1.6 4.8 0.00 0.10 0.00 87 1010.6